Location: Caltech
(34.1382°N, 118.1253°W)
Time: 01:47:48
(UTC-07:00)

SEDSat Delta rocket - Visible Passes

Search period start: 23 May 2015 00:00
Search period end: 02 June 2015 00:00
Orbit: 534 x 1006 km, 31.4° (Epoch: 22 May)

Date Brightness Start Highest point End Pass type
(mag) Time Alt. Az. Time Alt. Az. Time Alt. Az.
23 May 4.5 04:17:38 25° SSW 04:17:52 25° SSW 04:21:59 10° SSE visible
23 May 5.3 20:28:18 10° S 20:32:43 19° SSE 20:37:21 10° ESE visible
23 May 4.4 22:12:28 10° SW 22:17:58 43° S 22:17:58 43° S visible
24 May 5.3 03:41:19 17° SSE 03:41:19 17° SSE 03:42:42 10° SSE visible
24 May 4.4 21:32:36 10° SW 21:38:52 42° SSE 21:41:32 30° ESE visible
24 May 5.3 23:18:37 10° WSW 23:21:47 29° WSW 23:21:47 29° WSW visible
25 May 4.6 20:52:50 10° SW 20:58:52 38° SSE 21:04:45 11° E visible
25 May 4.0 22:38:35 10° WSW 22:44:59 65° S 22:44:59 65° S visible
26 May 4.7 20:13:08 10° SW 20:18:53 34° SSE 20:24:56 10° E visible
26 May 4.0 21:58:37 10° WSW 22:05:16 63° S 22:07:52 38° ESE visible
26 May 5.4 23:45:09 10° W 23:48:04 27° W 23:48:04 27° W visible
27 May 4.1 21:18:42 10° WSW 21:25:12 60° SSE 21:30:31 17° E visible
27 May 4.2 23:05:06 10° W 23:10:42 59° WSW 23:10:42 59° WSW visible
28 May 4.2 20:38:52 10° WSW 20:45:10 56° SSE 20:51:50 10° E visible
28 May 3.9 22:25:05 10° W 22:31:48 72° S 22:33:09 57° ESE visible
29 May 5.9 00:11:49 10° W 00:13:19 17° W 00:13:19 17° W visible
29 May 4.0 21:45:08 10° W 21:51:44 71° S 21:55:27 29° ESE visible
29 May 5.0 23:31:44 10° W 23:35:37 35° WSW 23:35:37 35° WSW visible
30 May 4.0 21:05:15 10° W 21:11:39 70° S 21:17:41 14° E visible
30 May 4.1 22:51:42 10° W 22:57:50 59° SSW 22:57:50 59° SSW visible
31 May 4.0 20:25:25 10° WSW 20:31:37 69° S 20:38:21 10° E visible
31 May 4.0 22:11:45 10° W 22:18:16 64° S 22:19:59 48° SE visible
31 May 5.9 23:58:37 10° W 00:00:09 17° W 00:00:09 17° W visible
01 Jun 4.0 21:31:50 10° W 21:38:12 66° S 21:42:06 26° ESE visible
01 Jun 5.2 23:18:31 10° W 23:22:15 30° WSW 23:22:15 30° WSW visible
